This is the latest recevied weather packets stored in our database for station/object W3EJE-13. If no packets are shown the sender has not sent any weather packets the latest 10 day(s).
| Time | Temp. | Humidity | Pressure | Rain* | Wind** | Luminosity | Snow |
|---|---|---|---|---|---|---|---|
| 1777824843 | 8.33° C | 58% | 1018.4 hPa | 0 mm | - | 702 W/m² | - |
| 1777824539 | 8.89° C | 59% | 1018.2 hPa | 0 mm | - | 704 W/m² | - |
| 1777824235 | 8.33° C | 58% | 1018.2 hPa | 0 mm | - | 737 W/m² | - |
| 1777823931 | 7.78° C | 59% | 1018.1 hPa | 0 mm | - | 709 W/m² | - |
| 1777823629 | 7.78° C | 58% | 1018.2 hPa | 0 mm | - | 708 W/m² | - |
| 1777823325 | 8.33° C | 55% | 1018.4 hPa | 0 mm | - | 707 W/m² | - |
| 1777823023 | 8.33° C | 56% | 1018.3 hPa | 0 mm | - | 692 W/m² | - |
| 1777822721 | 7.78° C | 61% | 1018.4 hPa | 0 mm | - | 695 W/m² | - |
| 1777822419 | 7.78° C | 57% | 1018.4 hPa | 0 mm | - | 698 W/m² | - |
| 1777822116 | 7.22° C | 55% | 1018.3 hPa | 0 mm | - | 726 W/m² | - |
| 1777821814 | 7.78° C | 60% | 1018.3 hPa | 0 mm | - | 728 W/m² | - |
| 1777821511 | 7.78° C | 59% | 1018.4 hPa | 0 mm | - | 730 W/m² | - |
| 1777821209 | 7.22° C | 58% | 1018.5 hPa | 0 mm | - | 736 W/m² | - |
| 1777820905 | 7.22° C | 58% | 1018.3 hPa | 0 mm | - | 750 W/m² | - |
| 1777820601 | 7.22° C | 60% | 1018.5 hPa | 0 mm | - | 769 W/m² | - |
| 1777820298 | 6.67° C | 59% | 1018.6 hPa | 0 mm | - | 759 W/m² | - |
| 1777819996 | 6.67° C | 61% | 1018.5 hPa | 0 mm | - | 806 W/m² | - |
| 1777819693 | 7.22° C | 61% | 1018.6 hPa | 0 mm | - | 758 W/m² | - |
| 1777819392 | 6.67° C | 60% | 1018.4 hPa | 0 mm | - | 763 W/m² | - |
| 1777819088 | 6.67° C | 63% | 1018.4 hPa | 0 mm | - | 757 W/m² | - |
| 1777818785 | 6.11° C | 61% | 1018.7 hPa | 0 mm | - | 94 W/m² | - |
| 1777818481 | 6.11° C | 63% | 1018.5 hPa | 0 mm | - | 178 W/m² | - |
| 1777818178 | 5° C | 65% | 1018.7 hPa | 0 mm | - | 691 W/m² | - |
| 1777817874 | 6.11° C | 67% | 1018.4 hPa | 0 mm | - | 111 W/m² | - |
| 1777817572 | 5.56° C | 68% | 1018.4 hPa | 0 mm | - | 117 W/m² | - |
* Rain latest hour (hover to see other rain measurements)
** Current wind speed in m/s (hover to see current wind gust speed)